Weather in Staroye Tyaberdino

Russia / Republic of Tatarstan     55°20′27″N   47°43′22″E
temp.,
°C
wind,
m/s
gust,
m/s
humid.,
%
clouds,
%
prec.,
mm/h
press.,
hPa
HPBL,
m
13 may, thu
thu1300:00+16se36585 0.0 1024100
03:00+15ese37639 0.0 1024121
06:00+16e496836 0.0 1024239
09:00+20ese6105382 0.0 1023576
12:00+24se71145100 0.0 10221368
15:00+22se61258100 0.0 1021867
18:00+22se61361100 0.0 1019534
21:00+20se616637 0.0 1020553
14 may, fri
fri1400:00+15sse51385100 1.3 1020267
03:00+14sse378580 1.8 1020126
06:00+16s247998 0.0 1020120
09:00+21s3464100 0.0 1021537
12:00+24ssw3553100 0.0 10211150
15:00+26sse465116 0.0 10201710
18:00+23sse485416 0.0 1019233
21:00+19s476786 0.0 1019113
15 may, sat
sat1500:00+18sse4773100 0.0 1019118
03:00+16sse496996 0.0 1019142
06:00+18sse5136597 0.0 1019286
09:00+24s6124695 0.0 1019545
12:00+27s71133100 0.0 10191202
15:00+28s6113491 0.0 10181607
18:00+24s5114799 0.0 1017285
21:00+19sse4136099 0.0 1017221
16 may, sun
sun1600:00+17s4135650 0.0 1017222
03:00+17s4145532 0.0 1017221
06:00+18s3116327 0.0 1018293
09:00+24ssw594381 0.0 1017593
12:00+27ssw7934100 0.0 10171252
15:00+27ssw6839100 0.0 10161619
18:00+24sw3757100 0.0 1016154
21:00+19sw34675 0.0 101659
17 may, mon
mon1700:00+18wsw227249 0.0 101719
03:00+17w227595 0.0 101811
06:00+19wsw017165 0.0 101874
09:00+23ssw015554 0.0 1018486
12:00+27ssw2342100 0.0 10181181
15:00+29wsw1336100 0.0 10171745
18:00+27ssw354744 0.0 1017125
21:00+21s224938 0.1 101824